• Join FlightAware (Why Join?)
  • Login
  • US Flag 
06:48AM EDT


 

Airport Tracker/Info


-or-


 

Live Flight TrackerFlight Track Log ✈ SWA2141 ✈ 22-Nov-2013 ✈ KSJC - KONT

Flight Track Log - Related Links

Times and Time Zones

All times are in EST time to prevent confusion due to time zone crossing. See the SWA2141 flight status page for this flight to view local times or setup timezone preferences in your user account.

Time Position Orientation Groundspeed Altitude Reporting Facility
EST Latitude Longitude Course Direction KTS MPH feet Rate Location/Type
09:41AM 37.3833 -121.9667 360° North 174 200 2,800  Level Northern Cal TRACON
09:42AM 37.4333 -121.9667 360° North 207 238 5,000 1,140 Climbing Northern Cal TRACON
09:43AM 37.4167 -121.9167 113° Southeast 219 252 5,000 720 Level Northern Cal TRACON
09:44AM 37.3667 -121.8500 133° Southeast 223 257 6,500 1,800 Climbing Northern Cal TRACON
09:45AM 37.3392 -121.8003 125° Southeast 233 268 8,500 2,580 Climbing Oakland Center
09:46AM 37.2775 -121.7322 139° Southeast 290 334 11,500 3,600 Climbing Oakland Center
09:47AM 37.2081 -121.6539 138° Southeast 327 376 15,900 3,780 Climbing Oakland Center
09:48AM 37.1369 -121.5725 138° Southeast 342 394 19,300 3,300 Climbing Oakland Center
09:49AM 37.0556 -121.4836 139° Southeast 373 429 22,700 3,420 Climbing Oakland Center
09:50AM 36.9819 -121.3889 134° Southeast 377 434 26,200 2,160 Climbing Oakland Center
09:51AM 36.9114 -121.2839 130° Southeast 391 450 27,100 1,380 Climbing Oakland Center
09:52AM 36.8383 -121.1767 130° Southeast 404 465 29,100 1,980 Climbing Oakland Center
09:53AM 36.7564 -121.0589 131° Southeast 428 493 31,200 1,800 Climbing Oakland Center
09:54AM 36.6747 -120.9414 131° Southeast 445 512 32,800 1,980 Climbing Oakland Center
09:55AM 36.5933 -120.8197 130° Southeast 456 525 35,200 2,220 Climbing Oakland Center
09:56AM 36.5133 -120.7006 130° Southeast 450 518 37,400 1,860 Climbing Oakland Center
09:57AM 36.4336 -120.5844 130° Southeast 443 510 39,000 1,320 Climbing Oakland Center
09:58AM 36.3356 -120.4431 131° Southeast 448 516 40,100 960 Climbing Oakland Center
09:59AM 36.2522 -120.3231 131° Southeast 456 525 41,000 420 Climbing Oakland Center
10:00AM 36.1706 -120.2050 131° Southeast 452 520 41,000  Level Oakland Center
10:01AM 36.0897 -120.0864 130° Southeast 450 518 41,000  Level Oakland Center
10:02AM 36.0075 -119.9700 131° Southeast 449 517 41,000  Level Oakland Center
10:03AM 35.9256 -119.8547 131° Southeast 446 513 41,000  Level Oakland Center
10:04AM 35.8414 -119.7344 131° Southeast 450 518 41,000  Level Los Angeles Center
10:05AM 35.7578 -119.6156 131° Southeast 455 524 41,000  Level Los Angeles Center
10:06AM 35.6767 -119.5017 131° Southeast 450 518 41,000  Level Oakland Center
10:07AM 35.5928 -119.3831 131° Southeast 455 524 41,000  Level Oakland Center
10:08AM 35.5097 -119.2678 131° Southeast 452 520 41,000  Level Oakland Center
10:09AM 35.4258 -119.1500 131° Southeast 455 524 41,000  Level Oakland Center
10:10AM 35.3428 -119.0356 132° Southeast 451 519 41,000 -840 Level Oakland Center
10:11AM 35.2603 -118.9217 132° Southeast 448 516 39,400 -2,160 Descending Oakland Center
10:12AM 35.1792 -118.8083 131° Southeast 444 511 36,700 -2,700 Descending Oakland Center
10:13AM 35.0981 -118.6961 131° Southeast 441 507 34,000 -2,460 Descending Oakland Center
10:14AM 35.0183 -118.5878 132° Southeast 435 501 31,700 -2,340 Descending Oakland Center
10:15AM 34.9197 -118.4533 132° Southeast 406 467 28,900 -1,980 Descending Los Angeles Center
10:16AM 34.8478 -118.3589 133° Southeast 388 447 27,400 -1,260 Descending Los Angeles Center
10:17AM 34.7806 -118.2658 131° Southeast 372 428 26,400 -900 Descending Los Angeles Center
10:19AM 34.7139 -118.1758 132° Southeast 363 418 25,400 -1,500 Descending Los Angeles Center
10:20AM 34.6358 -118.0706 132° Southeast 354 407 23,100 -1,620 Descending Los Angeles Center
10:21AM 34.5878 -117.9733 121° Southeast 340 391 22,200 -1,560 Descending Los Angeles Center
10:22AM 34.5358 -117.8581 119° Southeast 329 379 20,000 -1,980 Descending Los Angeles Center
10:23AM 34.4942 -117.7661 119° Southeast 316 364 18,200 -1,680 Descending Los Angeles Center
10:24AM 34.4539 -117.6769 119° Southeast 306 352 16,600 -1,620 Descending Los Angeles Center
10:25AM 34.4139 -117.5919 120° Southeast 294 338 14,900 -1,320 Descending Los Angeles Center
10:26AM 34.3714 -117.4972 119° Southeast 282 325 14,000 -840 Descending Los Angeles Center
10:27AM 34.3311 -117.4111 120° Southeast 291 335 13,200 -780 Descending Los Angeles Center
10:28AM 34.2828 -117.3364 128° Southeast 287 330 12,500 -1,260 Descending Los Angeles Center
10:29AM 34.2022 -117.3122 166° South 290 334 10,700 -1,620 Descending Los Angeles Center
10:30AM 34.1253 -117.2917 168° South 280 322 9,200 -2,400 Descending Los Angeles Center
10:31AM 34.0833 -117.3333 219° Southwest 263 303 6,600 -2,460 Descending Southern California TRACON
10:33AM 34.0500 -117.4833 255° West 199 229 2,600 -1,620 Descending Southern California TRACON
10:34AM 34.0500 -117.5333 270° West 153 176 1,900 -720 Descending Southern California TRACON
10:36AM 34.0500 -117.6000 270° West  Level FlightAware Approximate
10:43AM 34.0560 -117.6012 270° West  Level Estimated
10:44AM 34.0500 -117.6000 270° West  Level FlightAware Approximate